Weather History for KD50 - March, 2014

Change the Weather History Date:

Monday, March 17, 2014

  Actual Average (KISN) Record (KISN)
Temperature  
Mean Temperature 37 °F 30 °F  
Max Temperature 46 °F 41 °F 70 °F (1910)
Min Temperature 28 °F 19 °F -18 °F (1902)
Degree Days  
Heating Degree Days 28 35  
Month to date heating degree days 665  
Since 1 July heating degree days 7433  
Cooling Degree Days 0 0  
Month to date cooling degree days 0  
Year to date cooling degree days 0  
Moisture  
Dew Point 34 °F    
Average Humidity 90    
Maximum Humidity 100    
Minimum Humidity 53    
Precipitation  
Precipitation 0.00 in 0.03 in 1.39 in (2003)
Month to date precipitation 0.37  
Year to date precipitation 1.35  
Sea Level Pressure  
Sea Level Pressure 29.52 in    
Wind  
Wind Speed 6 mph (NNW)    
Max Wind Speed 13 mph    
Max Gust Speed -    
Visibility 10 miles    
Events      
T = Trace of Precipitation, MM = Missing Value Source: NWS Daily Summary

Daily Weather History Graph

Daily Weather History Graph

Search for Another Location

Airport or City:

Trip Planner

Search our weather history database for the weather conditions in past years. The results will help you decide how hot, cold, wet, or windy it might be!

Date:

Astronomy

Mar. 17, 2014 Rise Set
Actual Time 8:02 AM CDT 8:01 PM CDT
Civil Twilight 7:30 AM CDT 8:33 PM CDT
Nautical Twilight 6:53 AM CDT 9:10 PM CDT
Astronomical Twilight 6:15 AM CDT 9:48 PM CDT
Moon 9:30 PM CDT (3/17) 8:12 AM CDT (3/17)
Length of Visible Light 13h 02m
Length of Day
11h 59m
Full, 99% of the Moon is Illuminated
Mar 17
Full
Mar 23
Last Quarter
Mar 30
New
Apr 7
First Quarter
Apr 15
Full

Hourly Weather History & Observations

Time (CDT) Temp. Windchill Dew Point Humidity Pressure Visibility Wind Dir Wind Speed Gust Speed Precip Events Conditions
12:15 AM 35.6 °F 31.7 °F 35.6 °F 100% 29.59 in 10.0 mi SSW 4.6 mph - N/A   Unknown
12:35 AM 35.6 °F 31.7 °F 35.6 °F 100% 29.58 in 10.0 mi SW 4.6 mph - N/A   Unknown
12:55 AM 35.6 °F 30.7 °F 35.6 °F 100% 29.58 in 10.0 mi SW 5.8 mph - N/A   Unknown
1:15 AM 35.6 °F 28.6 °F 35.6 °F 100% 29.59 in 10.0 mi SSW 9.2 mph - N/A   Unknown
1:35 AM 37.4 °F 32.1 °F 35.6 °F 93% 29.59 in 10.0 mi West 6.9 mph - N/A   Unknown
1:55 AM 37.4 °F 31.4 °F 35.6 °F 93% 29.58 in 10.0 mi WNW 8.1 mph - N/A   Unknown
2:15 AM 37.4 °F 31.4 °F 35.6 °F 93% 29.57 in 10.0 mi WSW 8.1 mph - N/A   Unknown
2:35 AM 37.4 °F 33.8 °F 37.4 °F 100% 29.56 in 10.0 mi NW 4.6 mph - N/A   Unknown
2:55 AM 37.4 °F 30.8 °F 37.4 °F 100% 29.56 in 10.0 mi West 9.2 mph - N/A   Unknown
3:15 AM 37.4 °F 29.3 °F 35.6 °F 93% 29.54 in 10.0 mi WSW 12.7 mph - N/A   Unknown
3:35 AM 37.4 °F 29.8 °F 35.6 °F 93% 29.53 in 10.0 mi WSW 11.5 mph - N/A   Unknown
3:55 AM 39.2 °F 32.0 °F 35.6 °F 87% 29.51 in 10.0 mi WSW 11.5 mph - N/A   Unknown
4:15 AM 37.4 °F 29.8 °F 35.6 °F 93% 29.50 in 10.0 mi WSW 11.5 mph - N/A   Unknown
4:35 AM 37.4 °F 31.4 °F 35.6 °F 93% 29.50 in 10.0 mi WSW 8.1 mph - N/A   Unknown
4:55 AM 35.6 °F 29.2 °F 35.6 °F 100% 29.48 in 10.0 mi WSW 8.1 mph - N/A   Unknown
5:15 AM 35.6 °F 28.6 °F 35.6 °F 100% 29.47 in 10.0 mi SW 9.2 mph - N/A   Unknown
5:35 AM 35.6 °F 28.6 °F 35.6 °F 100% 29.47 in 10.0 mi NNE 9.2 mph - N/A   Unknown
5:55 AM 33.8 °F 28.6 °F 33.8 °F 100% 29.47 in 10.0 mi NNE 5.8 mph - N/A   Unknown
6:15 AM 32.0 °F - 32.0 °F 100% 29.46 in 10.0 mi Calm Calm - N/A   Unknown
6:35 AM 32.0 °F 27.5 °F 32.0 °F 100% 29.47 in 10.0 mi NE 4.6 mph - N/A   Unknown
6:55 AM 32.0 °F - 32.0 °F 100% 29.47 in 10.0 mi Calm Calm - N/A   Unknown
7:15 AM 30.2 °F - 30.2 °F 100% 29.46 in 10.0 mi Calm Calm - N/A   Unknown
7:35 AM 28.4 °F 24.6 °F 28.4 °F 100% 29.45 in 10.0 mi West 3.5 mph - N/A   Unknown
7:55 AM 28.4 °F 23.3 °F 28.4 °F 100% 29.45 in 10.0 mi WSW 4.6 mph - N/A   Unknown
8:15 AM 28.4 °F - 28.4 °F 100% 29.44 in 10.0 mi Calm Calm - N/A   Unknown
8:35 AM 28.4 °F - 28.4 °F 100% 29.44 in 10.0 mi Calm Calm - N/A   Unknown
8:55 AM 32.0 °F - 32.0 °F 100% 29.44 in 10.0 mi Calm Calm - N/A   Unknown
9:15 AM 32.0 °F - 32.0 °F 100% 29.44 in 10.0 mi Calm Calm - N/A   Unknown
9:35 AM 32.0 °F - 32.0 °F 100% 29.44 in 10.0 mi Calm Calm - N/A   Unknown
9:55 AM 33.8 °F - 33.8 °F 100% 29.44 in 10.0 mi Calm Calm - N/A   Unknown
10:15 AM 35.6 °F - 35.6 °F 100% 29.45 in 10.0 mi Calm Calm - N/A   Unknown
10:35 AM 35.6 °F - 35.6 °F 100% 29.45 in 10.0 mi Calm Calm - N/A   Unknown
10:55 AM 37.4 °F 34.9 °F 37.4 °F 100% 29.45 in 10.0 mi North 3.5 mph - N/A   Unknown
11:15 AM 39.2 °F 37.0 °F 37.4 °F 93% 29.46 in 10.0 mi North 3.5 mph - N/A   Unknown
11:35 AM 39.2 °F 34.2 °F 37.4 °F 93% 29.46 in 10.0 mi NNE 6.9 mph - N/A   Unknown
11:55 AM 39.2 °F 33.0 °F 35.6 °F 87% 29.45 in 10.0 mi NNE 9.2 mph - N/A   Unknown
12:15 PM 41.0 °F 35.8 °F 35.6 °F 81% 29.45 in 10.0 mi North 8.1 mph - N/A   Unknown
12:35 PM 41.0 °F 35.2 °F 37.4 °F 87% 29.45 in 10.0 mi NNE 9.2 mph - N/A   Unknown
12:55 PM 41.0 °F 35.8 °F 37.4 °F 87% 29.46 in 10.0 mi North 8.1 mph - N/A   Unknown
1:15 PM 41.0 °F 37.1 °F 35.6 °F 81% 29.45 in 10.0 mi North 5.8 mph - N/A   Unknown
1:35 PM 42.8 °F 40.1 °F 35.6 °F 76% 29.46 in 10.0 mi North 4.6 mph - N/A   Unknown
1:55 PM 42.8 °F 39.3 °F 35.6 °F 76% 29.46 in 10.0 mi NNE 5.8 mph - N/A   Unknown
2:15 PM 44.6 °F 40.7 °F 35.6 °F 71% 29.46 in 10.0 mi North 6.9 mph - N/A   Unknown
2:35 PM 44.6 °F 40.7 °F 33.8 °F 66% 29.47 in 10.0 mi NNE 6.9 mph - N/A   Unknown
2:55 PM 44.6 °F 40.2 °F 33.8 °F 66% 29.46 in 10.0 mi North 8.1 mph - N/A   Unknown
3:15 PM 44.6 °F 40.7 °F 35.6 °F 71% 29.47 in 10.0 mi North 6.9 mph - N/A   Unknown
3:35 PM 44.6 °F 40.2 °F 35.6 °F 71% 29.47 in 10.0 mi NNE 8.1 mph - N/A   Unknown
3:55 PM 46.4 °F 41.9 °F 32.0 °F 57% 29.47 in 10.0 mi North 9.2 mph - N/A   Unknown
4:15 PM 46.4 °F 41.5 °F 30.2 °F 53% 29.48 in 10.0 mi North 10.4 mph - N/A   Unknown
4:35 PM 46.4 °F 40.7 °F 33.8 °F 62% 29.49 in 10.0 mi North 12.7 mph - N/A   Unknown
4:55 PM 44.6 °F 38.4 °F 33.8 °F 66% 29.50 in 10.0 mi North 12.7 mph - N/A   Unknown
5:15 PM 44.6 °F 38.4 °F 32.0 °F 61% 29.51 in 10.0 mi North 12.7 mph - N/A   Unknown
5:35 PM 44.6 °F 38.4 °F 33.8 °F 66% 29.51 in 10.0 mi North 12.7 mph - N/A   Unknown
5:55 PM 42.8 °F 37.0 °F 33.8 °F 70% 29.52 in 10.0 mi North 10.4 mph - N/A   Unknown
6:15 PM 42.8 °F 37.5 °F 33.8 °F 70% 29.53 in 10.0 mi North 9.2 mph - N/A   Unknown
6:35 PM 41.0 °F 35.2 °F 33.8 °F 76% 29.54 in 10.0 mi North 9.2 mph - N/A   Unknown
6:55 PM 41.0 °F 35.8 °F 33.8 °F 76% 29.55 in 10.0 mi North 8.1 mph - N/A   Unknown
7:15 PM 39.2 °F 34.2 °F 33.8 °F 81% 29.57 in 10.0 mi North 6.9 mph - N/A   Unknown
7:35 PM 37.4 °F 32.8 °F 33.8 °F 87% 29.58 in 10.0 mi NNW 5.8 mph - N/A   Unknown
7:55 PM 35.6 °F 30.7 °F 32.0 °F 87% 29.59 in 10.0 mi NNW 5.8 mph - N/A   Unknown
8:15 PM 33.8 °F 28.6 °F 32.0 °F 93% 29.60 in 10.0 mi NW 5.8 mph - N/A   Unknown
8:35 PM 32.0 °F 25.6 °F 32.0 °F 100% 29.61 in 10.0 mi NNW 6.9 mph - N/A   Unknown
8:55 PM 32.0 °F 27.5 °F 32.0 °F 100% 29.62 in 10.0 mi NW 4.6 mph - N/A   Unknown
9:15 PM 32.0 °F 25.6 °F 32.0 °F 100% 29.63 in 10.0 mi NW 6.9 mph - N/A   Unknown
9:35 PM 32.0 °F 27.5 °F 32.0 °F 100% 29.64 in 10.0 mi NW 4.6 mph - N/A   Unknown
9:55 PM 32.0 °F 26.4 °F 32.0 °F 100% 29.65 in 10.0 mi NNW 5.8 mph - N/A   Unknown
10:15 PM 30.2 °F 24.3 °F 30.2 °F 100% 29.65 in 10.0 mi NW 5.8 mph - N/A   Unknown
10:35 PM 28.4 °F 22.2 °F 28.4 °F 100% 29.66 in 10.0 mi NNW 5.8 mph - N/A   Unknown
10:55 PM 28.4 °F 23.3 °F 28.4 °F 100% 29.67 in 10.0 mi NNW 4.6 mph - N/A   Unknown
11:15 PM 32.0 °F 24.8 °F 32.0 °F 100% 29.67 in 10.0 mi NW 8.1 mph - N/A   Unknown
11:35 PM 30.2 °F 23.4 °F 30.2 °F 100% 29.68 in 10.0 mi NNW 6.9 mph - N/A   Unknown
11:55 PM 28.4 °F 21.2 °F 28.4 °F 100% 29.69 in 10.0 mi NW 6.9 mph - N/A   Unknown